Location: Lecco
(45.8566°N, 9.3977°E)
Time: 07:59:54
(UTC+02:00)

Altair - Pass Details

Date: 22 August 2020
Orbit: 1501 x 1682 km, 47.2° (Epoch: 25 September)

Event Time Altitude Azimuth Distance (km) Brightness Sun altitude
Rises 06:13:08 0° 290° (WNW) 4,773 9.6 -3.8°
Reaches altitude 10° 06:16:17 10° 288° (WNW) 3,762 9.1 -3.3°
Maximum altitude 06:25:36 65° 210° (SSW) 1,660 7.6 -1.8°
Drops below altitude 10° 06:34:37 10° 131° (SE) 3,652 10.0 -0.3°
Sets 06:37:38 0° 129° (SE) 4,625 10.6 0.2°
